When you browse on this site, cookies collect data to enhance your experience and personalize the content and advertising you see.
Visit our Privacy Policy to learn more. By continuing to use the site, you agree to this use of cookies and data.
  • In Portugal
  • List of Countries
  • For 7 days
  • Water Temperature
  • Satellite Maps
  • Weather Map
  • Weather Widgets
  • user-avatar
    Login

    Hourly Weather Otok

    Today, 21 March, Thursday

    Time Temperature Precipitation Wind Pressure Humidity
    00:00 +3°C° 0 mm 3 mps 757 mmHg 63%
    01:00 +3°C° 0 mm 3 mps 757 mmHg 63%
    02:00 +3°C° 0 mm 3 mps 757 mmHg 64%
    03:00 +3°C° 0 mm 3 mps 756 mmHg 66%
    04:00 +3°C° 0 mm 3 mps 756 mmHg 67%
    05:00 +3°C° 0 mm 3 mps 756 mmHg 68%
    06:00 +3°C° 0 mm 3 mps 757 mmHg 69%
    07:00 +3°C° 0 mm 3 mps 757 mmHg 70%
    08:00 +5°C° 0 mm 3 mps 757 mmHg 68%
    09:00 +8°C° 0 mm 3 mps 757 mmHg 66%
    10:00 +10°C° 0 mm 3 mps 757 mmHg 64%
    11:00 +11°C° 0 mm 3 mps 757 mmHg 62%
    12:00 +12°C° 0 mm 3 mps 757 mmHg 61%
    13:00 +14°C° 0 mm 3 mps 757 mmHg 59%
    14:00 +14°C° 0 mm 3 mps 756 mmHg 59%
    15:00 +14°C° 0 mm 3 mps 756 mmHg 59%
    16:00 +14°C° 0 mm 3 mps 756 mmHg 59%
    17:00 +14°C° 0 mm 2 mps 756 mmHg 66%
    18:00 +12°C° 0 mm 2 mps 756 mmHg 73%
    19:00 +11°C° 0 mm 1 mps 756 mmHg 80%
    20:00 +10°C° 0 mm 1 mps 756 mmHg 83%
    21:00 +10°C° 0 mm 1 mps 756 mmHg 85%
    22:00 +9°C° 0 mm 1 mps 756 mmHg 88%
    23:00 +9°C° 0 mm 1 mps 756 mmHg 88%

    Tomorrow, 22 March, Friday

    Time Temperature Precipitation Wind Pressure Humidity
    00:00 +9°C° 0 mm 1 mps 756 mmHg 89%
    01:00 +8°C° 0 mm 1 mps 756 mmHg 90%
    02:00 +8°C° 0 mm 1 mps 756 mmHg 90%
    03:00 +8°C° 0 mm 1 mps 756 mmHg 90%
    04:00 +8°C° 0 mm 1 mps 755 mmHg 91%
    05:00 +8°C° 0 mm 1 mps 756 mmHg 90%
    06:00 +8°C° 0 mm 1 mps 756 mmHg 89%
    07:00 +8°C° 0 mm 1 mps 756 mmHg 89%
    08:00 +11°C° 0 mm 1 mps 756 mmHg 81%
    09:00 +13°C° 0 mm 1 mps 756 mmHg 73%
    10:00 +15°C° 0 mm 1 mps 756 mmHg 64%
    11:00 +16°C° 0 mm 1 mps 756 mmHg 61%
    12:00 +18°C° 0 mm 1 mps 756 mmHg 57%
    13:00 +19°C° 0 mm 1 mps 755 mmHg 53%
    14:00 +19°C° 0 mm 1 mps 755 mmHg 53%
    15:00 +19°C° 0 mm 1 mps 754 mmHg 52%
    16:00 +19°C° 0 mm 1 mps 754 mmHg 52%
    17:00 +16°C° 0 mm 1 mps 754 mmHg 59%
    18:00 +15°C° 0 mm 1 mps 754 mmHg 65%
    19:00 +13°C° 0 mm 2 mps 753 mmHg 71%
    20:00 +13°C° 0 mm 2 mps 753 mmHg 74%
    21:00 +12°C° 0 mm 2 mps 753 mmHg 77%
    22:00 +10°C° 0 mm 2 mps 753 mmHg 79%
    23:00 +10°C° 0 mm 2 mps 753 mmHg 79%

    Day after tomorrow, 23 March, Saturday

    Time Temperature Precipitation Wind Pressure Humidity
    00:00 +11°C° 0 mm 1 mps 753 mmHg 80%
    01:00 +11°C° 0 mm 1 mps 753 mmHg 80%
    02:00 +10°C° 0 mm 1 mps 752 mmHg 80%
    03:00 +9°C° 0 mm 2 mps 752 mmHg 81%
    04:00 +9°C° 0 mm 2 mps 752 mmHg 81%
    05:00 +9°C° 0 mm 2 mps 752 mmHg 81%
    06:00 +9°C° 0 mm 2 mps 751 mmHg 80%
    07:00 +9°C° 0 mm 2 mps 751 mmHg 79%
    08:00 +13°C° 0 mm 2 mps 751 mmHg 71%
    09:00 +15°C° 0 mm 2 mps 751 mmHg 63%
    10:00 +17°C° 0 mm 2 mps 751 mmHg 54%
    11:00 +18°C° 0 mm 3 mps 751 mmHg 51%
    12:00 +19°C° 0 mm 3 mps 751 mmHg 48%
    13:00 +20°C° 0 mm 3 mps 751 mmHg 45%
    14:00 +19°C° 0 mm 3 mps 750 mmHg 45%
    15:00 +19°C° 0 mm 3 mps 750 mmHg 46%
    16:00 +19°C° 0 mm 3 mps 750 mmHg 46%
    17:00 +17°C° 0 mm 2 mps 750 mmHg 54%
    18:00 +16°C° 0 mm 2 mps 750 mmHg 61%
    19:00 +14°C° 0 mm 2 mps 750 mmHg 68%
    20:00 +13°C° 0 mm 2 mps 751 mmHg 75%
    21:00 +12°C° 0 mm 2 mps 751 mmHg 81%
    22:00 +10°C° 0 mm 3 mps 752 mmHg 87%
    23:00 +10°C° 0 mm 3 mps 752 mmHg 86%

    24 March, Sunday

    Time Temperature Precipitation Wind Pressure Humidity
    00:00 +10°C° 0 mm 3 mps 752 mmHg 85%
    01:00 +9°C° 0 mm 3 mps 752 mmHg 85%
    02:00 +9°C° 0 mm 3 mps 752 mmHg 83%
    03:00 +8°C° 0 mm 3 mps 752 mmHg 81%
    04:00 +7°C° 0 mm 3 mps 752 mmHg 79%
    05:00 +7°C° 0 mm 3 mps 752 mmHg 78%
    06:00 +5°C° 0 mm 3 mps 752 mmHg 77%
    07:00 +5°C° 0 mm 3 mps 752 mmHg 76%
    08:00 +7°C° 0 mm 3 mps 752 mmHg 71%
    09:00 +8°C° 0 mm 3 mps 752 mmHg 65%
    10:00 +9°C° 0 mm 2 mps 752 mmHg 59%
    11:00 +10°C° 0 mm 2 mps 751 mmHg 57%
    12:00 +12°C° 0 mm 2 mps 751 mmHg 55%
    13:00 +14°C° 0 mm 2 mps 750 mmHg 52%
    14:00 +14°C° 0 mm 2 mps 750 mmHg 53%
    15:00 +14°C° 0 mm 2 mps 749 mmHg 53%
    16:00 +14°C° 0 mm 2 mps 749 mmHg 53%
    17:00 +12°C° 0 mm 2 mps 748 mmHg 58%
    18:00 +10°C° 0 mm 2 mps 748 mmHg 62%
    19:00 +9°C° 0 mm 2 mps 748 mmHg 66%
    20:00 +9°C° 0.2 mm 2 mps 748 mmHg 69%
    21:00 +8°C° 0.2 mm 2 mps 747 mmHg 71%
    22:00 +8°C° 0.2 mm 2 mps 747 mmHg 74%
    23:00 +8°C° 0.7 mm 1 mps 747 mmHg 77%

    25 March, Monday

    Time Temperature Precipitation Wind Pressure Humidity
    00:00 +8°C° 0.7 mm 1 mps 747 mmHg 80%
    01:00 +6°C° 0.7 mm 0 mps 746 mmHg 84%
    02:00 +7°C° 0 mm 1 mps 746 mmHg 84%
    03:00 +6°C° 0 mm 1 mps 746 mmHg 85%
    04:00 +5°C° 0 mm 2 mps 746 mmHg 86%
    05:00 +5°C° 0 mm 2 mps 746 mmHg 82%
    06:00 +4°C° 0 mm 3 mps 746 mmHg 79%
    07:00 +4°C° 0 mm 3 mps 747 mmHg 76%
    08:00 +5°C° 0.1 mm 4 mps 747 mmHg 76%
    09:00 +5°C° 0.1 mm 4 mps 747 mmHg 76%
    10:00 +6°C° 0.1 mm 5 mps 747 mmHg 76%
    11:00 +7°C° 0 mm 6 mps 746 mmHg 66%
    12:00 +7°C° 0 mm 6 mps 746 mmHg 56%
    13:00 +8°C° 0 mm 7 mps 745 mmHg 46%
    14:00 +8°C° 0.1 mm 7 mps 745 mmHg 52%
    15:00 +6°C° 0.1 mm 8 mps 744 mmHg 57%
    16:00 +6°C° 0.1 mm 8 mps 744 mmHg 63%
    17:00 +5°C° 0.2 mm 8 mps 744 mmHg 65%
    18:00 +4°C° 0.2 mm 7 mps 744 mmHg 66%
    19:00 +3°C° 0.2 mm 7 mps 744 mmHg 68%
    20:00 +3°C° 0.2 mm 7 mps 744 mmHg 69%
    21:00 +2°C° 0.2 mm 7 mps 744 mmHg 71%
    22:00 +1°C° 0.2 mm 6 mps 745 mmHg 72%
    23:00 0°C° 0.1 mm 7 mps 744 mmHg 73%

    26 March, Tuesday

    Time Temperature Precipitation Wind Pressure Humidity
    00:00 0°C° 0.1 mm 8 mps 744 mmHg 73%
    01:00 0°C° 0.1 mm 8 mps 744 mmHg 74%
    02:00 -1°C° 0.1 mm 8 mps 744 mmHg 73%
    03:00 -1°C° 0.1 mm 9 mps 744 mmHg 72%
    04:00 -1°C° 0.1 mm 9 mps 744 mmHg 72%
    05:00 -1°C° 0 mm 9 mps 744 mmHg 70%
    06:00 -1°C° 0 mm 9 mps 744 mmHg 67%
    07:00 -3°C° 0 mm 9 mps 744 mmHg 65%
    08:00 -1°C° 0.3 mm 9 mps 745 mmHg 62%
    09:00 -1°C° 0.3 mm 9 mps 745 mmHg 58%
    10:00 -2°C° 0.3 mm 10 mps 746 mmHg 55%
    11:00 0°C° 0.1 mm 9 mps 746 mmHg 52%
    12:00 0°C° 0.1 mm 9 mps 747 mmHg 49%
    13:00 +1°C° 0.1 mm 9 mps 747 mmHg 46%
    14:00 +1°C° 0 mm 8 mps 748 mmHg 47%
    15:00 +1°C° 0 mm 8 mps 748 mmHg 48%
    16:00 +2°C° 0 mm 7 mps 748 mmHg 48%
    17:00 +1°C° 0 mm 6 mps 749 mmHg 52%
    18:00 0°C° 0 mm 5 mps 750 mmHg 56%
    19:00 0°C° 0 mm 4 mps 750 mmHg 59%
    20:00 -1°C° 0 mm 4 mps 751 mmHg 62%
    21:00 -2°C° 0 mm 4 mps 751 mmHg 64%
    22:00 -3°C° 0 mm 4 mps 752 mmHg 67%
    23:00 -3°C° 0 mm 4 mps 752 mmHg 68%
    Show more